{"data":{"norad_id":54652,"epoch":"2026-05-25T00:34:01.873920Z","epoch_age_seconds":76065,"freshness":"FRESH","line1":"1 54652U 22166L   26145.02363280  .00000066  00000+0  12852-3 0  9993","line2":"2 54652  87.9256 248.5784 0001824 101.6191 258.5148 13.21824830168463","mean_motion":13.2182483,"eccentricity":0.0001824,"inclination_deg":87.9256,"raan_deg":248.5784,"arg_perigee_deg":101.6191,"mean_anomaly_deg":258.5148,"bstar":0.00012852,"rev_number":16846,"period_min":108.94030489653,"perigee_km":1176.3796318312,"apogee_km":1179.1360222641,"semimajor_km":7555.8948270476,"source":"CELESTRAK","updated_at":"2026-05-25T13:38:22.629180Z"}}